Regional Weather Roundup
Issued by NWS

Home | Current Version | Previous Version | Text Only | Print | Product List | Glossary Off
Versions: 1 2 3 4 5 6 7 8 9 10 11 12 13 14 15 16 17 18 19 20 21 22 23 24 25 26 27 28 29 30 31 32 33 34 35 36 37 38 39 40 41 42 43 44 45 46 47 48 49 50

000
ASUS43 KBIS 311059
RWRND

NORTH DAKOTA REGIONAL WEATHER ROUNDUP
NATIONAL WEATHER SERVICE BISMARCK ND
600 AM CDT THU JUL 31 2014

NOTE: "FAIR" INDICATES FEW OR NO CLOUDS BELOW 12,000 FEET WITH NO
SIGNIFICANT WEATHER AND/OR OBSTRUCTIONS TO VISIBILITY.


NDZ001>003-009>011-017-311200-
NORTHWEST NORTH DAKOTA

CITY           SKY/WX    TMP DP  RH WIND       PRES   REMARKS
WILLISTON      LGT RAIN  64  59  83 S5        30.08F
MINOT          MOCLDY    58  52  80 S6        30.08F
$$

NDZ018>021-031>035-040>046-311200-
SOUTHWEST NORTH DAKOTA

CITY           SKY/WX    TMP DP  RH WIND       PRES   REMARKS
BISMARCK       MOCLDY    58  56  93 CALM      30.10F
GARRISON         N/A     57  55  93 N6        30.09F
HETTINGER ARPT PTCLDY    52  50  93 W6        30.15S FOG
$$

NDZ004>008-012>016-024-026-027-054-311200-
NORTHEAST NORTH DAKOTA

CITY           SKY/WX    TMP DP  RH WIND       PRES   REMARKS
GRAND FORKS    PTCLDY    58  56  93 W5        30.03S
DEVILS LAKE    CLEAR     61  55  82 N5        30.06S
$$

NDZ022-023-025-028>030-036>039-047>053-311200-
SOUTHEAST NORTH DAKOTA

CITY           SKY/WX    TMP DP  RH WIND       PRES   REMARKS
FARGO          CLEAR     57  54  89 SW3       30.04S
$$



USA.gov is the U.S. government's official web portal to all federal, state and local government web resources and services.